SWA2103 KDEN-KSTL

Flight info

Callsign SWA2103
Flight time 1h 32m
Altitude 39000
Route EXTAN7 SHAYK JUDGE ANX KAYLA3
Aircraft B38M/M-SADE2E3GHIJ4J7P2RWZ/LB1D1

Departure

Time 2026-05-08 02:52
Airport Denver International Airport (KDEN)

Arrival

Time 2026-05-08 04:25
Airport St. Louis Lambert International Airport (KSTL)
Time Latitude Longitude Altitude Speed Heading
2026-05-08 02:03 39.86255 -104.67737 5389 ft 0 kts
2026-05-08 02:31 39.86256 -104.67737 5389 ft 0 kts
2026-05-08 02:34 39.86237 -104.67737 5389 ft 4 kts
2026-05-08 02:34 39.86210 -104.67738 5385 ft 4 kts
2026-05-08 02:35 39.86182 -104.67738 5386 ft 4 kts
2026-05-08 02:35 39.86171 -104.67738 5387 ft 0 kts
2026-05-08 02:42 39.86173 -104.67737 5389 ft 1 kts 17°
2026-05-08 02:42 39.86170 -104.67706 5387 ft 8 kts 123°
2026-05-08 02:42 39.86134 -104.67601 5389 ft 16 kts 94°
2026-05-08 02:43 39.86133 -104.67444 5389 ft 18 kts 90°
2026-05-08 02:43 39.86132 -104.67281 5389 ft 18 kts 90°
2026-05-08 02:43 39.86130 -104.67112 5389 ft 19 kts 91°
2026-05-08 02:43 39.86129 -104.66944 5389 ft 18 kts 89°
2026-05-08 02:44 39.86128 -104.66795 5389 ft 14 kts 91°
2026-05-08 02:44 39.86127 -104.66669 5389 ft 14 kts 90°
2026-05-08 02:44 39.86115 -104.66538 5387 ft 15 kts 106°
2026-05-08 02:44 39.86107 -104.66403 5389 ft 15 kts 91°
2026-05-08 02:45 39.86107 -104.66267 5390 ft 13 kts 78°
2026-05-08 02:45 39.86180 -104.66231 5388 ft 13 kts
2026-05-08 02:45 39.86283 -104.66231 5385 ft 16 kts
2026-05-08 02:45 39.86402 -104.66229 5385 ft 17 kts
2026-05-08 02:46 39.86512 -104.66226 5384 ft 16 kts
2026-05-08 02:46 39.86626 -104.66224 5386 ft 18 kts
2026-05-08 02:46 39.86761 -104.66224 5381 ft 21 kts
2026-05-08 02:46 39.86916 -104.66224 5374 ft 24 kts
2026-05-08 02:47 39.87082 -104.66220 5372 ft 23 kts
2026-05-08 02:47 39.87250 -104.66218 5367 ft 23 kts
2026-05-08 02:47 39.87403 -104.66216 5366 ft 22 kts
2026-05-08 02:47 39.87521 -104.66214 5364 ft 14 kts
2026-05-08 02:48 39.87613 -104.66213 5363 ft 9 kts 359°
2026-05-08 02:48 39.87637 -104.66213 5364 ft 0 kts 359°
2026-05-08 02:50 39.87646 -104.66213 5364 ft 3 kts 360°
2026-05-08 02:50 39.87690 -104.66213 5363 ft 11 kts
2026-05-08 02:51 39.87753 -104.66189 5363 ft 10 kts 66°
2026-05-08 02:51 39.87754 -104.66001 5359 ft 45 kts 90°
2026-05-08 02:51 39.87749 -104.65298 5357 ft 108 kts 90°
2026-05-08 02:51 39.87741 -104.64075 5331 ft 161 kts 90°
2026-05-08 02:52 39.87726 -104.62488 5559 ft 184 kts 91°
2026-05-08 02:52 39.87710 -104.60780 6213 ft 190 kts 89°
2026-05-08 02:52 39.87526 -104.59035 6732 ft 199 kts 111°
2026-05-08 02:52 39.86983 -104.57376 7392 ft 201 kts 112°
2026-05-08 02:53 39.86440 -104.55684 8058 ft 204 kts 112°
2026-05-08 02:53 39.85880 -104.53963 8682 ft 209 kts 112°
2026-05-08 02:53 39.85290 -104.52167 9164 ft 224 kts 112°
2026-05-08 02:53 39.84646 -104.50221 9547 ft 245 kts 113°
2026-05-08 02:54 39.83942 -104.48101 9817 ft 266 kts 113°
2026-05-08 02:54 39.83180 -104.45816 9867 ft 281 kts 113°
2026-05-08 02:54 39.82381 -104.43422 9897 ft 297 kts 113°
2026-05-08 02:54 39.81539 -104.40901 9901 ft 308 kts 112°
2026-05-08 02:55 39.81074 -104.38156 10294 ft 315 kts 90°
2026-05-08 02:55 39.80809 -104.32136 11193 ft 350 kts 98°
2026-05-08 02:55 39.80419 -104.28975 11862 ft 358 kts 97°
2026-05-08 02:56 39.80047 -104.25761 12657 ft 362 kts 97°
2026-05-08 02:56 39.79681 -104.22495 13441 ft 367 kts 97°
2026-05-08 02:56 39.79318 -104.19188 14179 ft 372 kts 97°
2026-05-08 02:56 39.78959 -104.15881 14883 ft 376 kts 97°
2026-05-08 02:57 39.78596 -104.12491 15617 ft 380 kts 97°
2026-05-08 02:57 39.78229 -104.09067 16313 ft 385 kts 96°
2026-05-08 02:57 39.77856 -104.05604 17004 ft 389 kts 96°
2026-05-08 02:57 39.77479 -104.02097 17684 ft 394 kts 96°
2026-05-08 02:58 39.77095 -103.98547 18335 ft 398 kts 96°
2026-05-08 02:58 39.76707 -103.94972 18889 ft 402 kts 96°
2026-05-08 02:58 39.76285 -103.91360 19481 ft 405 kts 97°
2026-05-08 02:58 39.75842 -103.87731 20048 ft 409 kts 97°
2026-05-08 02:59 39.75382 -103.84066 20614 ft 412 kts 98°
2026-05-08 02:59 39.74919 -103.80380 21172 ft 416 kts 98°
2026-05-08 02:59 39.74454 -103.76654 21728 ft 419 kts 96°
2026-05-08 02:59 39.74163 -103.72885 22262 ft 422 kts 93°
2026-05-08 03:00 39.73884 -103.69080 22802 ft 425 kts 94°
2026-05-08 03:00 39.73690 -103.66541 23168 ft 427 kts 94°
2026-05-08 03:00 39.73387 -103.62684 23654 ft 431 kts 94°
2026-05-08 03:00 39.73080 -103.58800 24095 ft 434 kts 94°
2026-05-08 03:01 39.72767 -103.54882 24537 ft 437 kts 94°
2026-05-08 03:01 39.72346 -103.49654 25096 ft 442 kts 94°
2026-05-08 03:01 39.72131 -103.46972 25382 ft 444 kts 94°
2026-05-08 03:01 39.71807 -103.42971 25797 ft 447 kts 94°
2026-05-08 03:02 39.71480 -103.38948 26204 ft 450 kts 94°
2026-05-08 03:02 39.71148 -103.34888 26618 ft 454 kts 94°
2026-05-08 03:02 39.70813 -103.30800 26984 ft 457 kts 94°
2026-05-08 03:02 39.70474 -103.26684 27375 ft 460 kts 94°
2026-05-08 03:03 39.70136 -103.22597 27743 ft 463 kts 94°
2026-05-08 03:03 39.69790 -103.18425 28118 ft 466 kts 95°
2026-05-08 03:03 39.69440 -103.14234 28479 ft 469 kts 95°
2026-05-08 03:03 39.69086 -103.10012 28832 ft 472 kts 95°
2026-05-08 03:04 39.68728 -103.05755 29176 ft 475 kts 95°
2026-05-08 03:04 39.68366 -103.01474 29509 ft 478 kts 95°
2026-05-08 03:04 39.68000 -102.97169 29842 ft 481 kts 95°
2026-05-08 03:04 39.67631 -102.92845 30144 ft 484 kts 95°
2026-05-08 03:05 39.67258 -102.88486 30438 ft 486 kts 95°
2026-05-08 03:05 39.66882 -102.84118 30741 ft 488 kts 95°
2026-05-08 03:05 39.66503 -102.79730 31039 ft 490 kts 95°
2026-05-08 03:05 39.66120 -102.75324 31322 ft 492 kts 95°
2026-05-08 03:06 39.65734 -102.70892 31601 ft 494 kts 95°
2026-05-08 03:06 39.65345 -102.66454 31887 ft 496 kts 95°
2026-05-08 03:06 39.64953 -102.62000 32166 ft 498 kts 95°
2026-05-08 03:06 39.64559 -102.57545 32435 ft 500 kts 95°
2026-05-08 03:07 39.64160 -102.53051 32710 ft 501 kts 95°
2026-05-08 03:07 39.63758 -102.48549 32977 ft 503 kts 95°
2026-05-08 03:07 39.63353 -102.44027 33252 ft 505 kts 95°
2026-05-08 03:07 39.62952 -102.39568 33576 ft 505 kts 95°
2026-05-08 03:08 39.62537 -102.34984 33948 ft 504 kts 95°
2026-05-08 03:08 39.62133 -102.30540 34257 ft 503 kts 95°
2026-05-08 03:08 39.61718 -102.25982 34529 ft 503 kts 95°
2026-05-08 03:08 39.61305 -102.21480 34806 ft 503 kts 95°
2026-05-08 03:09 39.60896 -102.17028 35075 ft 503 kts 95°
2026-05-08 03:09 39.60476 -102.12469 35349 ft 503 kts 96°
2026-05-08 03:09 39.60065 -102.08021 35595 ft 503 kts 96°
2026-05-08 03:09 39.59646 -102.03517 35843 ft 503 kts 96°
2026-05-08 03:10 39.59279 -101.99011 36092 ft 503 kts 95°
2026-05-08 03:10 39.58929 -101.94489 36327 ft 504 kts 95°
2026-05-08 03:10 39.58569 -101.89968 36553 ft 504 kts 95°
2026-05-08 03:10 39.58208 -101.85451 36771 ft 504 kts 95°
2026-05-08 03:11 39.57845 -101.80931 36923 ft 505 kts 96°
2026-05-08 03:11 39.57113 -101.71886 36938 ft 504 kts 96°
2026-05-08 03:12 39.56374 -101.62854 36928 ft 504 kts 96°
2026-05-08 03:12 39.55627 -101.53816 37206 ft 505 kts 96°
2026-05-08 03:12 39.55252 -101.49293 37386 ft 506 kts 96°
2026-05-08 03:13 39.54873 -101.44757 37567 ft 506 kts 96°
2026-05-08 03:13 39.54464 -101.40232 37735 ft 506 kts 97°
2026-05-08 03:13 39.54012 -101.35692 37913 ft 507 kts 97°
2026-05-08 03:13 39.53568 -101.31174 38077 ft 507 kts 97°
2026-05-08 03:14 39.53122 -101.26634 38238 ft 508 kts 97°
2026-05-08 03:14 39.52680 -101.22145 38388 ft 509 kts 98°
2026-05-08 03:14 39.52230 -101.17600 38538 ft 509 kts 98°
2026-05-08 03:14 39.51773 -101.12987 38655 ft 510 kts 98°
2026-05-08 03:15 39.51325 -101.08496 38759 ft 511 kts 98°
2026-05-08 03:15 39.50869 -101.03941 38879 ft 510 kts 98°
2026-05-08 03:15 39.50411 -100.99381 38958 ft 512 kts 98°
2026-05-08 03:16 39.49487 -100.90238 38943 ft 512 kts 98°
2026-05-08 03:16 39.48556 -100.81097 38932 ft 513 kts 98°
2026-05-08 03:17 39.47615 -100.71933 38913 ft 513 kts 98°
2026-05-08 03:17 39.46667 -100.62779 38889 ft 514 kts 98°
2026-05-08 03:18 39.45710 -100.53604 38879 ft 515 kts 98°
2026-05-08 03:18 39.44743 -100.44411 38886 ft 516 kts 98°
2026-05-08 03:19 39.43768 -100.35212 38876 ft 516 kts 98°
2026-05-08 03:19 39.42786 -100.26010 38882 ft 516 kts 98°
2026-05-08 03:20 39.41803 -100.16879 38891 ft 517 kts 98°
2026-05-08 03:20 39.40806 -100.07675 38890 ft 517 kts 98°
2026-05-08 03:21 39.39800 -99.98470 38903 ft 517 kts 99°
2026-05-08 03:21 39.38787 -99.89265 38903 ft 518 kts 99°
2026-05-08 03:22 39.37767 -99.80057 38906 ft 518 kts 99°
2026-05-08 03:22 39.36738 -99.70849 38910 ft 518 kts 99°
2026-05-08 03:23 39.35699 -99.61616 38899 ft 519 kts 99°
2026-05-08 03:23 39.34652 -99.52380 38883 ft 519 kts 99°
2026-05-08 03:24 39.33598 -99.43143 38873 ft 520 kts 99°
2026-05-08 03:24 39.32536 -99.33901 38857 ft 521 kts 99°
2026-05-08 03:25 39.31464 -99.24644 38864 ft 522 kts 99°
2026-05-08 03:25 39.30382 -99.15371 38862 ft 522 kts 99°
2026-05-08 03:26 39.29292 -99.06094 38858 ft 523 kts 99°
2026-05-08 03:26 39.28193 -98.96802 38858 ft 524 kts 99°
2026-05-08 03:27 39.27086 -98.87510 38856 ft 524 kts 99°
2026-05-08 03:27 39.25970 -98.78205 38861 ft 525 kts 99°
2026-05-08 03:28 39.24843 -98.68882 38858 ft 526 kts 99°
2026-05-08 03:28 39.23716 -98.59615 38855 ft 526 kts 99°
2026-05-08 03:29 39.22573 -98.50283 38857 ft 527 kts 99°
2026-05-08 03:29 39.21422 -98.40945 38858 ft 527 kts 100°
2026-05-08 03:30 39.19680 -98.26932 38855 ft 528 kts 100°
2026-05-08 03:31 39.17332 -98.08273 38857 ft 528 kts 100°
2026-05-08 03:32 39.15556 -97.94322 38854 ft 528 kts 101°
2026-05-08 03:32 39.14358 -97.84989 38857 ft 527 kts 101°
2026-05-08 03:33 39.13156 -97.75688 38858 ft 527 kts 101°
2026-05-08 03:33 39.11945 -97.66368 38860 ft 527 kts 101°
2026-05-08 03:34 39.10728 -97.57068 38868 ft 527 kts 101°
2026-05-08 03:34 39.09502 -97.47764 38864 ft 527 kts 101°
2026-05-08 03:35 39.08277 -97.38522 38862 ft 527 kts 101°
2026-05-08 03:35 39.07031 -97.29163 38860 ft 527 kts 101°
2026-05-08 03:36 39.05794 -97.19926 38862 ft 527 kts 101°
2026-05-08 03:36 39.04542 -97.10633 38870 ft 528 kts 101°
2026-05-08 03:37 39.03282 -97.01337 38881 ft 528 kts 101°
2026-05-08 03:37 39.02109 -96.92006 38872 ft 529 kts 93°
2026-05-08 03:38 39.02443 -96.82574 38875 ft 530 kts 86°
2026-05-08 03:38 39.02799 -96.73096 38891 ft 531 kts 86°
2026-05-08 03:39 39.03146 -96.63615 38888 ft 531 kts 87°
2026-05-08 03:39 39.03486 -96.54131 38899 ft 532 kts 87°
2026-05-08 03:40 39.03819 -96.44624 38895 ft 532 kts 87°
2026-05-08 03:40 39.04144 -96.35114 38892 ft 533 kts 87°
2026-05-08 03:41 39.04462 -96.25589 38889 ft 533 kts 87°
2026-05-08 03:41 39.04773 -96.16045 38891 ft 534 kts 87°
2026-05-08 03:42 39.05076 -96.06493 38894 ft 535 kts 87°
2026-05-08 03:42 39.05372 -95.96938 38904 ft 535 kts 87°
2026-05-08 03:43 39.05660 -95.87357 38908 ft 536 kts 88°
2026-05-08 03:43 39.05941 -95.77774 38915 ft 536 kts 88°
2026-05-08 03:44 39.06215 -95.68174 38920 ft 537 kts 88°
2026-05-08 03:44 39.06480 -95.58569 38920 ft 537 kts 88°
2026-05-08 03:45 39.06738 -95.48961 38918 ft 538 kts 88°
2026-05-08 03:45 39.06987 -95.39401 38922 ft 538 kts 88°
2026-05-08 03:46 39.07229 -95.29778 38927 ft 538 kts 88°
2026-05-08 03:46 39.07464 -95.20139 38926 ft 539 kts 88°
2026-05-08 03:47 39.07691 -95.10500 38924 ft 539 kts 88°
2026-05-08 03:47 39.07910 -95.00858 38924 ft 539 kts 88°
2026-05-08 03:48 39.08121 -94.91204 38917 ft 539 kts 88°
2026-05-08 03:48 39.08324 -94.81555 38923 ft 540 kts 88°
2026-05-08 03:49 39.08520 -94.71882 38924 ft 540 kts 88°
2026-05-08 03:49 39.08708 -94.62217 38925 ft 540 kts 88°
2026-05-08 03:50 39.08887 -94.52549 38927 ft 541 kts 89°
2026-05-08 03:50 39.09059 -94.42864 38931 ft 541 kts 89°
2026-05-08 03:51 39.09225 -94.33177 38943 ft 542 kts 89°
2026-05-08 03:51 39.09385 -94.23475 38941 ft 542 kts 89°
2026-05-08 03:52 39.09486 -94.13758 38930 ft 542 kts 95°
2026-05-08 03:52 39.08156 -94.04267 38925 ft 541 kts 103°
2026-05-08 03:53 39.06918 -93.96374 38943 ft 542 kts 104°
2026-05-08 03:53 39.05398 -93.86886 38941 ft 542 kts 104°
2026-05-08 03:54 39.03865 -93.77367 38940 ft 543 kts 104°
2026-05-08 03:54 39.02325 -93.67855 38951 ft 544 kts 104°
2026-05-08 03:55 39.00773 -93.58323 38957 ft 545 kts 104°
2026-05-08 03:55 38.99212 -93.48788 38965 ft 545 kts 104°
2026-05-08 03:56 38.97642 -93.39250 38973 ft 546 kts 105°
2026-05-08 03:56 38.96062 -93.29700 38978 ft 547 kts 105°
2026-05-08 03:57 38.94472 -93.20142 38978 ft 548 kts 105°
2026-05-08 03:57 38.92869 -93.10560 38976 ft 549 kts 105°
2026-05-08 03:58 38.91257 -93.00974 38976 ft 550 kts 105°
2026-05-08 03:58 38.89642 -92.91419 38986 ft 552 kts 105°
2026-05-08 03:59 38.87994 -92.81726 38989 ft 552 kts 105°
2026-05-08 03:59 38.86349 -92.72094 38992 ft 553 kts 105°
2026-05-08 04:00 38.84703 -92.62514 38992 ft 554 kts 105°
2026-05-08 04:00 38.83038 -92.52868 38982 ft 554 kts 105°
2026-05-08 04:01 38.81362 -92.43208 38987 ft 555 kts 106°
2026-05-08 04:01 38.80519 -92.38375 38775 ft 554 kts 106°
2026-05-08 04:01 38.79677 -92.33552 37722 ft 560 kts 106°
2026-05-08 04:01 38.78815 -92.28629 36639 ft 568 kts 106°
2026-05-08 04:02 38.77953 -92.23718 36179 ft 561 kts 106°
2026-05-08 04:02 38.77096 -92.18855 35629 ft 557 kts 106°
2026-05-08 04:02 38.76243 -92.14018 34967 ft 557 kts 106°
2026-05-08 04:02 38.75388 -92.09178 34291 ft 557 kts 106°
2026-05-08 04:03 38.74533 -92.04350 33538 ft 557 kts 106°
2026-05-08 04:03 38.72820 -91.94699 32221 ft 551 kts 105°
2026-05-08 04:03 38.71979 -91.89940 31706 ft 546 kts 105°
2026-05-08 04:04 38.71144 -91.85232 31210 ft 540 kts 105°
2026-05-08 04:04 38.70314 -91.80563 30719 ft 534 kts 105°
2026-05-08 04:04 38.69508 -91.75951 30246 ft 529 kts 102°
2026-05-08 04:04 38.69219 -91.71277 29752 ft 524 kts 88°
2026-05-08 04:05 38.69261 -91.66652 29270 ft 518 kts 89°
2026-05-08 04:05 38.69265 -91.62063 28782 ft 512 kts 89°
2026-05-08 04:05 38.69282 -91.57538 28282 ft 507 kts 88°
2026-05-08 04:05 38.69301 -91.53040 27817 ft 502 kts 88°
2026-05-08 04:06 38.69319 -91.48651 27359 ft 497 kts 88°
2026-05-08 04:06 38.69335 -91.44246 26916 ft 492 kts 88°
2026-05-08 04:06 38.69353 -91.39878 26446 ft 488 kts 88°
2026-05-08 04:06 38.69369 -91.35553 26026 ft 483 kts 88°
2026-05-08 04:07 38.69383 -91.31278 25587 ft 479 kts 88°
2026-05-08 04:07 38.69398 -91.27037 25188 ft 475 kts 88°
2026-05-08 04:07 38.69408 -91.22822 24757 ft 471 kts 88°
2026-05-08 04:07 38.69483 -91.18653 24366 ft 466 kts 85°
2026-05-08 04:08 38.69584 -91.14522 23919 ft 463 kts 85°
2026-05-08 04:08 38.69678 -91.10396 23194 ft 465 kts 85°
2026-05-08 04:08 38.69785 -91.06276 22215 ft 462 kts 85°
2026-05-08 04:08 38.69888 -91.02184 21178 ft 461 kts 85°
2026-05-08 04:09 38.69989 -90.98086 20186 ft 458 kts 85°
2026-05-08 04:09 38.70086 -90.94013 19234 ft 455 kts 85°
2026-05-08 04:09 38.70182 -90.89987 18319 ft 452 kts 85°
2026-05-08 04:09 38.70274 -90.85979 17281 ft 448 kts 85°
2026-05-08 04:10 38.70365 -90.82014 16276 ft 443 kts 85°
2026-05-08 04:10 38.70454 -90.78098 15330 ft 437 kts 85°
2026-05-08 04:10 38.70539 -90.74254 14417 ft 430 kts 85°
2026-05-08 04:10 38.70675 -90.70465 13755 ft 418 kts 84°
2026-05-08 04:11 38.70839 -90.66832 13337 ft 399 kts 84°
2026-05-08 04:11 38.70986 -90.63412 12937 ft 382 kts 84°
2026-05-08 04:11 38.71127 -90.60081 12532 ft 367 kts 84°
2026-05-08 04:11 38.71261 -90.56880 12134 ft 354 kts 84°
2026-05-08 04:12 38.71326 -90.53793 11728 ft 343 kts 94°
2026-05-08 04:12 38.70668 -90.50912 11328 ft 335 kts 118°
2026-05-08 04:12 38.69499 -90.48392 10945 ft 324 kts 122°
2026-05-08 04:12 38.68320 -90.45970 10561 ft 316 kts 122°
2026-05-08 04:13 38.67170 -90.43610 10174 ft 308 kts 122°
2026-05-08 04:13 38.66047 -90.41309 9774 ft 303 kts 122°
2026-05-08 04:13 38.64942 -90.39035 9344 ft 299 kts 122°
2026-05-08 04:13 38.63856 -90.36786 8915 ft 295 kts 122°
2026-05-08 04:14 38.62795 -90.34573 8509 ft 290 kts 122°
2026-05-08 04:14 38.61754 -90.32385 8057 ft 286 kts 122°
2026-05-08 04:14 38.60724 -90.30209 7566 ft 284 kts 122°
2026-05-08 04:14 38.59712 -90.28055 7088 ft 282 kts 122°
2026-05-08 04:15 38.58709 -90.25905 6621 ft 281 kts 122°
2026-05-08 04:15 38.57718 -90.23761 6141 ft 279 kts 122°
2026-05-08 04:15 38.56743 -90.21632 5651 ft 277 kts 122°
2026-05-08 04:15 38.55784 -90.19509 5186 ft 274 kts 122°
2026-05-08 04:16 38.54867 -90.17443 5055 ft 262 kts 122°
2026-05-08 04:16 38.53970 -90.15419 5036 ft 262 kts 122°
2026-05-08 04:16 38.53070 -90.13391 5015 ft 262 kts 122°
2026-05-08 04:16 38.52248 -90.11318 4987 ft 263 kts 107°
2026-05-08 04:17 38.52254 -90.09065 4991 ft 249 kts 69°
2026-05-08 04:17 38.53247 -90.07370 5046 ft 237 kts 31°
2026-05-08 04:17 38.54697 -90.06406 5042 ft 235 kts 20°
2026-05-08 04:17 38.56189 -90.05562 4996 ft 235 kts 20°
2026-05-08 04:18 38.57669 -90.04730 4771 ft 236 kts 20°
2026-05-08 04:18 38.59261 -90.04307 4435 ft 229 kts 352°
2026-05-08 04:18 38.60727 -90.04896 4124 ft 218 kts 322°
2026-05-08 04:18 38.61692 -90.06290 3917 ft 207 kts 291°
2026-05-08 04:19 38.62044 -90.08061 3823 ft 207 kts 278°
2026-05-08 04:19 38.62405 -90.09817 3734 ft 205 kts 287°
2026-05-08 04:19 38.62943 -90.11439 3637 ft 192 kts 293°
2026-05-08 04:19 38.63548 -90.12900 3527 ft 181 kts 295°
2026-05-08 04:20 38.64178 -90.14279 3426 ft 179 kts 297°
2026-05-08 04:20 38.64821 -90.15622 3294 ft 173 kts 298°
2026-05-08 04:20 38.65450 -90.16906 3182 ft 169 kts 298°
2026-05-08 04:20 38.66074 -90.18176 3066 ft 169 kts 298°
2026-05-08 04:21 38.66699 -90.19443 2991 ft 169 kts 298°
2026-05-08 04:21 38.67326 -90.20714 2938 ft 168 kts 298°
2026-05-08 04:21 38.67936 -90.21950 2749 ft 161 kts 298°
2026-05-08 04:21 38.68512 -90.23117 2581 ft 151 kts 297°
2026-05-08 04:22 38.69064 -90.24237 2382 ft 148 kts 297°
2026-05-08 04:22 38.69614 -90.25351 2178 ft 148 kts 297°
2026-05-08 04:22 38.70159 -90.26455 2000 ft 144 kts 297°
2026-05-08 04:22 38.70688 -90.27528 1811 ft 142 kts 297°
2026-05-08 04:23 38.71215 -90.28599 1620 ft 142 kts 298°
2026-05-08 04:23 38.71742 -90.29665 1428 ft 141 kts 299°
2026-05-08 04:23 38.72271 -90.30740 1203 ft 143 kts 300°
2026-05-08 04:23 38.72806 -90.31818 1027 ft 144 kts 300°
2026-05-08 04:24 38.73336 -90.32891 838 ft 145 kts 300°
2026-05-08 04:24 38.73881 -90.33996 655 ft 144 kts 300°
2026-05-08 04:24 38.74368 -90.34989 589 ft 106 kts 302°
2026-05-08 04:24 38.74643 -90.35545 584 ft 52 kts 302°
2026-05-08 04:25 38.74822 -90.35906 578 ft 33 kts 303°
2026-05-08 04:25 38.74917 -90.36072 567 ft 15 kts 347°
2026-05-08 04:25 38.74991 -90.36024 569 ft 13 kts 34°
2026-05-08 04:25 38.75007 -90.35939 571 ft 12 kts 124°
2026-05-08 04:26 38.74960 -90.35849 568 ft 13 kts 123°
2026-05-08 04:26 38.74905 -90.35737 576 ft 17 kts 122°
2026-05-08 04:26 38.74827 -90.35643 576 ft 16 kts 172°
2026-05-08 04:26 38.74705 -90.35643 581 ft 19 kts 181°
2026-05-08 04:27 38.74547 -90.35641 584 ft 26 kts 178°
2026-05-08 04:27 38.74372 -90.35638 581 ft 17 kts 188°
2026-05-08 04:27 38.74274 -90.35705 583 ft 17 kts 212°
2026-05-08 04:27 38.74207 -90.35761 582 ft 10 kts 221°
2026-05-08 04:28 38.74209 -90.35802 578 ft 5 kts 300°
2026-05-08 04:28 38.74238 -90.35862 576 ft 10 kts 303°
2026-05-08 04:28 38.74285 -90.35952 579 ft 12 kts 301°
2026-05-08 04:28 38.74268 -90.36000 575 ft 8 kts 217°
2026-05-08 04:29 38.74242 -90.36009 580 ft 1 kts 148°
2026-05-08 04:29 38.74216 -90.35958 575 ft 14 kts 123°
2026-05-08 04:29 38.74147 -90.35820 581 ft 15 kts 122°
2026-05-08 04:29 38.74085 -90.35812 581 ft 11 kts 213°
2026-05-08 04:30 38.74005 -90.35875 574 ft 15 kts 212°
2026-05-08 04:30 38.73926 -90.35932 574 ft 8 kts 185°
2026-05-08 04:30 38.73883 -90.35897 575 ft 7 kts 144°
2026-05-08 04:30 38.73849 -90.35910 576 ft 2 kts 222°
2026-05-08 04:31 38.73836 -90.35925 575 ft 1 kts 222°
2026-05-08 04:31 38.73835 -90.35926 575 ft 0 kts 222°